Time,TemperatureF,DewpointF,PressureIn,WindDirection,WindDirectionDegrees,WindSpeedMPH,WindSpeedGustMPH,Humidity,HourlyPrecipIn,Conditions,Clouds,dailyrainin,SoftwareType,DateUTC
2013-11-09 00:01:00,34.5,27.9,30.08,South,180,0.0,10.9,77,0.00,,,0.00,WUHU21636XXSP,2013-11-09 05:01:00,
2013-11-09 00:06:00,34.5,27.9,30.08,South,180,0.0,0.0,77,0.00,,,0.00,WUHU21636XXSP,2013-11-09 05:06:00,
2013-11-09 00:11:00,34.5,27.9,30.08,South,180,0.0,0.0,77,0.00,,,0.00,WUHU21636XXSP,2013-11-09 05:11:00,
2013-11-09 00:16:00,34.3,27.7,30.07,South,180,0.0,0.0,77,0.00,,,0.00,WUHU21636XXSP,2013-11-09 05:16:00,
2013-11-09 00:21:00,34.5,27.9,30.06,SE,135,0.0,3.3,77,0.00,,,0.00,WUHU21636XXSP,2013-11-09 05:21:00,
2013-11-09 00:26:00,34.5,27.9,30.07,SE,135,0.0,3.3,77,0.00,,,0.00,WUHU21636XXSP,2013-11-09 05:26:00,
2013-11-09 00:31:00,34.5,27.9,30.06,SE,135,0.0,2.6,77,0.00,,,0.00,WUHU21636XXSP,2013-11-09 05:31:00,
2013-11-09 00:36:00,34.5,27.9,30.06,SE,135,0.0,0.0,77,0.00,,,0.00,WUHU21636XXSP,2013-11-09 05:36:00,
2013-11-09 00:41:00,34.5,27.9,30.06,SE,135,0.0,0.0,77,0.00,,,0.00,WUHU21636XXSP,2013-11-09 05:41:00,
2013-11-09 00:46:00,34.5,27.9,30.06,SE,135,1.3,11.3,78,0.00,,,0.00,WUHU21636XXSP,2013-11-09 05:46:00,
2013-11-09 00:51:00,34.5,28.2,30.06,SSE,157,3.1,11.3,78,0.00,,,0.00,WUHU21636XXSP,2013-11-09 05:51:00,
2013-11-09 00:56:00,34.5,28.2,30.05,SE,135,2.0,4.4,78,0.00,,,0.00,WUHU21636XXSP,2013-11-09 05:56:00,
2013-11-09 01:01:00,34.9,28.2,30.04,SE,135,3.1,6.2,77,0.00,,,0.00,WUHU21636XXSP,2013-11-09 06:01:00,
2013-11-09 01:06:00,35.1,28.4,30.04,ESE,112,1.5,6.2,77,0.00,,,0.00,WUHU21636XXSP,2013-11-09 06:06:00,
2013-11-09 01:11:00,35.2,28.0,30.03,SE,135,3.5,8.7,75,0.00,,,0.00,WUHU21636XXSP,2013-11-09 06:11:00,
2013-11-09 01:16:00,35.4,28.2,30.04,SSW,202,2.0,8.7,75,0.00,,,0.00,WUHU21636XXSP,2013-11-09 06:16:00,
2013-11-09 01:21:00,35.2,28.0,30.04,SSE,157,1.1,8.7,75,0.00,,,0.00,WUHU21636XXSP,2013-11-09 06:21:00,
2013-11-09 01:26:00,35.2,28.0,30.04,SSE,157,2.9,4.2,76,0.00,,,0.00,WUHU21636XXSP,2013-11-09 06:26:00,
2013-11-09 01:31:00,35.4,28.4,30.02,SE,135,2.4,7.1,76,0.00,,,0.00,WUHU21636XXSP,2013-11-09 06:31:00,
2013-11-09 01:36:00,35.4,28.4,30.02,SE,135,2.4,7.1,76,0.00,,,0.00,WUHU21636XXSP,2013-11-09 06:36:00,
2013-11-09 01:41:00,35.4,28.4,30.01,SE,135,2.9,6.9,76,0.00,,,0.00,WUHU21636XXSP,2013-11-09 06:41:00,
2013-11-09 01:46:00,35.4,28.4,30.01,SE,135,3.1,6.9,76,0.00,,,0.00,WUHU21636XXSP,2013-11-09 06:46:00,
2013-11-09 01:51:00,35.4,28.4,30.00,SE,135,3.5,3.8,76,0.00,,,0.00,WUHU21636XXSP,2013-11-09 06:51:00,
2013-11-09 01:56:00,35.6,28.6,30.00,SE,135,5.1,6.4,76,0.00,,,0.00,WUHU21636XXSP,2013-11-09 06:56:00,
2013-11-09 02:01:00,36.0,28.8,29.99,SSE,157,9.3,12.9,75,0.00,,,0.00,WUHU21636XXSP,2013-11-09 07:01:00,
2013-11-09 02:06:00,36.1,28.9,29.98,SE,135,4.6,12.9,75,0.00,,,0.00,WUHU21636XXSP,2013-11-09 07:06:00,
2013-11-09 02:11:00,36.1,28.9,29.98,SSE,157,7.5,11.4,75,0.00,,,0.00,WUHU21636XXSP,2013-11-09 07:11:00,
2013-11-09 02:16:00,36.3,29.1,29.97,SE,135,5.1,13.8,75,0.00,,,0.00,WUHU21636XXSP,2013-11-09 07:16:00,
2013-11-09 02:21:00,36.5,28.9,29.96,SE,135,3.3,13.8,74,0.00,,,0.00,WUHU21636XXSP,2013-11-09 07:21:00,
2013-11-09 02:26:00,36.7,29.1,29.95,SE,135,5.1,12.7,74,0.00,,,0.00,WUHU21636XXSP,2013-11-09 07:26:00,
2013-11-09 02:31:00,36.7,29.1,29.96,SE,135,7.1,12.3,74,0.00,,,0.00,WUHU21636XXSP,2013-11-09 07:31:00,
2013-11-09 02:36:00,36.7,29.1,29.97,SSE,157,2.6,12.3,74,0.00,,,0.00,WUHU21636XXSP,2013-11-09 07:36:00,
2013-11-09 02:41:00,36.7,29.1,29.96,SSE,157,3.3,10.2,74,0.00,,,0.00,WUHU21636XXSP,2013-11-09 07:41:00,
2013-11-09 02:46:00,36.7,29.1,29.95,SE,135,4.2,10.0,74,0.00,,,0.00,WUHU21636XXSP,2013-11-09 07:46:00,
2013-11-09 02:51:00,37.0,29.5,29.94,SSE,157,5.1,10.0,74,0.00,,,0.00,WUHU21636XXSP,2013-11-09 07:51:00,
2013-11-09 02:56:00,37.2,29.3,29.95,SSE,157,4.6,5.1,73,0.00,,,0.00,WUHU21636XXSP,2013-11-09 07:56:00,
2013-11-09 03:01:00,37.6,29.7,29.93,SE,135,3.8,10.7,73,0.00,,,0.00,WUHU21636XXSP,2013-11-09 08:01:00,
2013-11-09 03:06:00,37.6,29.7,29.92,SE,135,5.1,10.7,73,0.00,,,0.00,WUHU21636XXSP,2013-11-09 08:06:00,
2013-11-09 03:11:00,37.8,29.8,29.92,SSE,157,4.9,9.1,73,0.00,,,0.00,WUHU21636XXSP,2013-11-09 08:11:00,
2013-11-09 03:16:00,37.9,29.7,29.91,SE,135,6.7,14.0,72,0.00,,,0.00,WUHU21636XXSP,2013-11-09 08:16:00,
2013-11-09 03:21:00,37.9,29.7,29.91,SE,135,6.0,14.0,72,0.00,,,0.00,WUHU21636XXSP,2013-11-09 08:21:00,
2013-11-09 03:26:00,37.9,29.7,29.90,SE,135,6.7,15.8,72,0.00,,,0.00,WUHU21636XXSP,2013-11-09 08:26:00,
2013-11-09 03:31:00,37.9,29.7,29.89,SE,135,6.9,15.8,72,0.00,,,0.00,WUHU21636XXSP,2013-11-09 08:31:00,
2013-11-09 03:36:00,37.9,29.7,29.89,South,180,4.2,14.0,72,0.00,,,0.00,WUHU21636XXSP,2013-11-09 08:36:00,
2013-11-09 03:41:00,37.9,29.7,29.89,SE,135,10.7,16.3,72,0.00,,,0.00,WUHU21636XXSP,2013-11-09 08:41:00,
2013-11-09 03:46:00,38.1,29.5,29.89,SE,135,9.6,16.3,71,0.00,,,0.00,WUHU21636XXSP,2013-11-09 08:46:00,
2013-11-09 03:51:00,38.3,29.7,29.89,SE,135,3.5,27.2,71,0.00,,,0.00,WUHU21636XXSP,2013-11-09 08:51:00,
2013-11-09 03:56:00,38.1,30.4,29.88,SSE,157,7.1,27.2,74,0.00,,,0.00,WUHU21636XXSP,2013-11-09 08:56:00,
2013-11-09 04:01:00,37.6,30.6,29.88,SSE,157,6.7,16.5,76,0.00,,,0.00,WUHU21636XXSP,2013-11-09 09:01:00,
2013-11-09 04:06:00,37.0,31.5,29.87,SSE,157,6.7,17.8,80,0.00,,,0.00,WUHU21636XXSP,2013-11-09 09:06:00,
2013-11-09 04:11:00,36.7,31.3,29.87,SE,135,7.1,17.8,81,0.00,,,0.00,WUHU21636XXSP,2013-11-09 09:11:00,
2013-11-09 04:16:00,36.5,32.0,29.87,SE,135,6.2,16.5,84,0.01,,,0.01,WUHU21636XXSP,2013-11-09 09:16:00,
2013-11-09 04:21:00,36.3,31.8,29.87,ESE,112,5.3,16.5,84,0.01,,,0.01,WUHU21636XXSP,2013-11-09 09:21:00,
2013-11-09 04:26:00,36.1,32.0,29.87,SSE,157,7.6,13.4,85,0.01,,,0.01,WUHU21636XXSP,2013-11-09 09:26:00,
2013-11-09 04:31:00,35.8,31.8,29.86,SE,135,5.1,12.7,86,0.01,,,0.01,WUHU21636XXSP,2013-11-09 09:31:00,
2013-11-09 04:36:00,35.6,31.6,29.85,SSE,157,3.8,12.7,86,0.03,,,0.03,WUHU21636XXSP,2013-11-09 09:36:00,
2013-11-09 04:41:00,35.4,31.8,29.85,SE,135,4.0,12.7,87,0.03,,,0.03,WUHU21636XXSP,2013-11-09 09:41:00,
2013-11-09 04:46:00,35.2,31.8,29.84,SE,135,5.1,15.2,88,0.03,,,0.03,WUHU21636XXSP,2013-11-09 09:46:00,
2013-11-09 04:51:00,35.1,31.6,29.84,SSE,157,5.3,15.2,88,0.03,,,0.03,WUHU21636XXSP,2013-11-09 09:51:00,
2013-11-09 04:56:00,35.1,32.0,29.84,SSE,157,6.0,12.7,88,0.03,,,0.03,WUHU21636XXSP,2013-11-09 09:56:00,
2013-11-09 05:01:00,35.1,32.0,29.84,SSE,157,4.0,12.7,89,0.03,,,0.03,WUHU21636XXSP,2013-11-09 10:01:00,
2013-11-09 05:06:00,34.9,31.8,29.83,SSE,157,3.8,12.7,89,0.03,,,0.03,WUHU21636XXSP,2013-11-09 10:06:00,
2013-11-09 05:11:00,34.9,31.8,29.83,South,180,3.8,12.9,89,0.05,,,0.05,WUHU21636XXSP,2013-11-09 10:11:00,
2013-11-09 05:16:00,34.9,31.8,29.83,South,180,7.1,19.5,89,0.04,,,0.05,WUHU21636XXSP,2013-11-09 10:16:00,
2013-11-09 05:21:00,34.9,31.8,29.82,South,180,4.0,19.5,89,0.04,,,0.05,WUHU21636XXSP,2013-11-09 10:21:00,
2013-11-09 05:26:00,35.1,32.4,29.82,SE,135,8.5,14.3,90,0.04,,,0.05,WUHU21636XXSP,2013-11-09 10:26:00,
2013-11-09 05:31:00,35.2,32.5,29.82,SE,135,3.5,18.7,90,0.06,,,0.07,WUHU21636XXSP,2013-11-09 10:31:00,
2013-11-09 05:36:00,35.2,32.5,29.81,SSE,157,3.8,18.7,90,0.04,,,0.07,WUHU21636XXSP,2013-11-09 10:36:00,
2013-11-09 05:41:00,35.6,32.9,29.81,SE,135,8.0,11.8,90,0.04,,,0.07,WUHU21636XXSP,2013-11-09 10:41:00,
2013-11-09 05:46:00,36.0,32.9,29.80,SE,135,6.0,15.4,89,0.06,,,0.09,WUHU21636XXSP,2013-11-09 10:46:00,
2013-11-09 05:51:00,36.3,33.3,29.80,SSE,157,3.5,15.4,89,0.06,,,0.09,WUHU21636XXSP,2013-11-09 10:51:00,
2013-11-09 05:56:00,36.5,33.4,29.80,SE,135,4.0,13.6,89,0.06,,,0.09,WUHU21636XXSP,2013-11-09 10:56:00,
2013-11-09 06:01:00,36.7,33.6,29.80,South,180,3.8,12.5,89,0.06,,,0.09,WUHU21636XXSP,2013-11-09 11:01:00,
2013-11-09 06:06:00,36.5,33.4,29.80,SE,135,2.0,9.6,89,0.06,,,0.11,WUHU21636XXSP,2013-11-09 11:06:00,
2013-11-09 06:11:00,36.7,33.6,29.79,South,180,9.8,24.1,89,0.06,,,0.11,WUHU21636XXSP,2013-11-09 11:11:00,
2013-11-09 06:16:00,36.7,33.3,29.79,SSE,157,2.4,24.1,88,0.08,,,0.13,WUHU21636XXSP,2013-11-09 11:16:00,
2013-11-09 06:21:00,36.5,33.1,29.79,SSE,157,3.5,12.9,88,0.08,,,0.13,WUHU21636XXSP,2013-11-09 11:21:00,
2013-11-09 06:26:00,36.5,33.1,29.79,South,180,9.8,19.6,88,0.08,,,0.13,WUHU21636XXSP,2013-11-09 11:26:00,
2013-11-09 06:31:00,36.1,32.5,29.79,SSE,157,4.2,19.6,88,0.08,,,0.15,WUHU21636XXSP,2013-11-09 11:31:00,
2013-11-09 06:36:00,35.6,32.5,29.79,SE,135,4.6,5.3,89,0.08,,,0.15,WUHU21636XXSP,2013-11-09 11:36:00,
2013-11-09 06:41:00,35.2,32.2,29.78,SSE,157,3.3,11.8,89,0.08,,,0.15,WUHU21636XXSP,2013-11-09 11:41:00,
2013-11-09 06:46:00,35.2,32.2,29.78,SSE,157,2.6,11.8,89,0.06,,,0.15,WUHU21636XXSP,2013-11-09 11:46:00,
2013-11-09 06:51:00,35.2,32.5,29.77,SSE,157,2.2,7.8,90,0.06,,,0.15,WUHU21636XXSP,2013-11-09 11:51:00,
2013-11-09 06:56:00,35.2,32.5,29.77,South,180,3.5,10.7,90,0.08,,,0.17,WUHU21636XXSP,2013-11-09 11:56:00,
2013-11-09 07:01:00,35.4,32.7,29.77,SSE,157,5.1,10.7,90,0.08,,,0.17,WUHU21636XXSP,2013-11-09 12:01:00,
2013-11-09 07:06:00,35.4,32.7,29.76,SE,135,3.5,6.4,90,0.06,,,0.17,WUHU21636XXSP,2013-11-09 12:06:00,
2013-11-09 07:11:00,35.6,32.9,29.76,SE,135,2.9,6.4,90,0.04,,,0.17,WUHU21636XXSP,2013-11-09 12:11:00,
2013-11-09 07:16:00,35.6,32.9,29.76,SSE,157,5.3,7.3,90,0.04,,,0.17,WUHU21636XXSP,2013-11-09 12:16:00,
2013-11-09 07:21:00,35.6,32.9,29.76,SE,135,3.8,7.3,90,0.04,,,0.17,WUHU21636XXSP,2013-11-09 12:21:00,
2013-11-09 07:26:00,35.8,33.1,29.76,SSE,157,3.5,4.6,90,0.02,,,0.17,WUHU21636XXSP,2013-11-09 12:26:00,
2013-11-09 07:31:00,36.0,33.3,29.75,SSE,157,2.2,4.6,90,0.02,,,0.17,WUHU21636XXSP,2013-11-09 12:31:00,
2013-11-09 07:36:00,36.3,33.6,29.75,South,180,2.0,8.5,90,0.02,,,0.17,WUHU21636XXSP,2013-11-09 12:36:00,
2013-11-09 07:41:00,36.3,33.3,29.75,SSE,157,2.4,8.5,89,0.02,,,0.17,WUHU21636XXSP,2013-11-09 12:41:00,
2013-11-09 07:46:00,36.5,33.4,29.75,SSE,157,5.1,8.0,89,0.02,,,0.17,WUHU21636XXSP,2013-11-09 12:46:00,
2013-11-09 07:51:00,36.7,33.6,29.75,South,180,4.0,10.0,89,0.02,,,0.17,WUHU21636XXSP,2013-11-09 12:51:00,
2013-11-09 07:56:00,36.7,33.6,29.74,SSE,157,4.4,10.0,89,0.00,,,0.17,WUHU21636XXSP,2013-11-09 12:56:00,
2013-11-09 08:01:00,37.0,34.0,29.74,SSW,202,6.2,14.0,89,0.00,,,0.17,WUHU21636XXSP,2013-11-09 13:01:00,
2013-11-09 08:06:00,37.0,34.0,29.74,SSE,157,6.7,14.0,89,0.00,,,0.17,WUHU21636XXSP,2013-11-09 13:06:00,
2013-11-09 08:11:00,37.2,34.2,29.74,SSW,202,4.6,13.4,89,0.00,,,0.17,WUHU21636XXSP,2013-11-09 13:11:00,
2013-11-09 08:16:00,37.2,34.2,29.74,South,180,9.3,10.5,89,0.00,,,0.17,WUHU21636XXSP,2013-11-09 13:16:00,
2013-11-09 08:21:00,37.6,34.2,29.74,SSE,157,5.5,10.5,88,0.00,,,0.17,WUHU21636XXSP,2013-11-09 13:21:00,
2013-11-09 08:26:00,37.8,34.3,29.73,SSW,202,4.4,9.8,88,0.00,,,0.17,WUHU21636XXSP,2013-11-09 13:26:00,
2013-11-09 08:31:00,38.1,34.7,29.73,South,180,4.2,9.3,88,0.00,,,0.17,WUHU21636XXSP,2013-11-09 13:31:00,
2013-11-09 08:36:00,38.1,34.7,29.73,SSE,157,6.2,10.2,88,0.00,,,0.17,WUHU21636XXSP,2013-11-09 13:36:00,
2013-11-09 08:41:00,38.5,35.1,29.73,SSE,157,7.6,12.3,87,0.00,,,0.17,WUHU21636XXSP,2013-11-09 13:41:00,
2013-11-09 08:46:00,38.8,35.2,29.73,South,180,4.4,12.3,87,0.00,,,0.17,WUHU21636XXSP,2013-11-09 13:46:00,
2013-11-09 08:51:00,39.0,35.4,29.73,SSW,202,3.1,14.7,87,0.00,,,0.17,WUHU21636XXSP,2013-11-09 13:51:00,
2013-11-09 08:56:00,39.2,35.1,29.73,SSW,202,13.6,14.7,86,0.00,,,0.17,WUHU21636XXSP,2013-11-09 13:56:00,
2013-11-09 09:01:00,39.4,35.4,29.73,SE,135,2.9,14.7,86,0.00,,,0.17,WUHU21636XXSP,2013-11-09 14:01:00,
2013-11-09 09:06:00,39.6,35.6,29.72,SSE,157,6.0,9.8,86,0.00,,,0.17,WUHU21636XXSP,2013-11-09 14:06:00,
2013-11-09 09:11:00,39.4,35.1,29.73,SSE,157,4.6,12.9,85,0.00,,,0.17,WUHU21636XXSP,2013-11-09 14:11:00,
2013-11-09 09:16:00,39.6,35.4,29.72,SSE,157,4.0,12.9,85,0.00,,,0.17,WUHU21636XXSP,2013-11-09 14:16:00,
2013-11-09 09:21:00,39.7,35.4,29.72,South,180,3.1,12.0,85,0.00,,,0.17,WUHU21636XXSP,2013-11-09 14:21:00,
2013-11-09 09:26:00,39.7,35.4,29.71,South,180,2.6,9.8,85,0.00,,,0.17,WUHU21636XXSP,2013-11-09 14:26:00,
2013-11-09 09:31:00,39.7,35.4,29.71,SSE,157,4.9,9.8,85,0.00,,,0.17,WUHU21636XXSP,2013-11-09 14:31:00,
2013-11-09 09:36:00,39.9,35.6,29.71,SSW,202,4.6,9.3,85,0.00,,,0.17,WUHU21636XXSP,2013-11-09 14:36:00,
2013-11-09 09:41:00,40.1,35.8,29.71,SSE,157,2.9,8.7,85,0.00,,,0.17,WUHU21636XXSP,2013-11-09 14:41:00,
2013-11-09 09:46:00,40.1,35.9,29.71,SSE,157,2.9,3.5,85,0.00,,,0.17,WUHU21636XXSP,2013-11-09 14:46:00,
2013-11-09 09:51:00,40.3,36.0,29.70,South,180,0.4,4.2,85,0.00,,,0.17,WUHU21636XXSP,2013-11-09 14:51:00,
2013-11-09 09:56:00,40.3,36.0,29.70,SSE,157,1.7,8.5,85,0.00,,,0.17,WUHU21636XXSP,2013-11-09 14:56:00,
2013-11-09 10:01:00,40.5,36.7,29.69,SE,135,6.2,8.5,86,0.00,,,0.17,WUHU21636XXSP,2013-11-09 15:01:00,
2013-11-09 10:06:00,40.6,36.3,29.69,South,180,4.0,10.7,85,0.00,,,0.17,WUHU21636XXSP,2013-11-09 15:06:00,
2013-11-09 10:11:00,40.6,36.7,29.69,SSE,157,3.5,10.7,86,0.00,,,0.17,WUHU21636XXSP,2013-11-09 15:11:00,
2013-11-09 10:16:00,40.8,36.5,29.69,South,180,4.6,8.5,85,0.00,,,0.17,WUHU21636XXSP,2013-11-09 15:16:00,
2013-11-09 10:21:00,41.2,36.9,29.69,SW,225,4.0,8.5,85,0.00,,,0.17,WUHU21636XXSP,2013-11-09 15:21:00,
2013-11-09 10:26:00,41.2,36.9,29.68,SSW,202,2.9,10.9,85,0.00,,,0.17,WUHU21636XXSP,2013-11-09 15:26:00,
2013-11-09 10:31:00,41.4,37.0,29.68,South,180,3.5,10.9,85,0.00,,,0.17,WUHU21636XXSP,2013-11-09 15:31:00,
2013-11-09 10:36:00,41.5,37.2,29.68,SSW,202,5.3,9.1,85,0.00,,,0.17,WUHU21636XXSP,2013-11-09 15:36:00,
2013-11-09 10:41:00,41.7,37.4,29.68,SSW,202,1.7,5.3,85,0.00,,,0.17,WUHU21636XXSP,2013-11-09 15:41:00,
2013-11-09 10:46:00,41.7,37.4,29.68,SSE,157,3.3,6.4,85,0.00,,,0.17,WUHU21636XXSP,2013-11-09 15:46:00,
2013-11-09 10:51:00,42.1,37.8,29.68,WSW,247,1.3,10.5,85,0.00,,,0.17,WUHU21636XXSP,2013-11-09 15:51:00,
2013-11-09 10:56:00,42.6,37.9,29.68,South,180,4.2,10.5,84,0.00,,,0.17,WUHU21636XXSP,2013-11-09 15:56:00,
2013-11-09 11:01:00,43.3,38.7,29.68,SW,225,6.9,10.5,84,0.00,,,0.17,WUHU21636XXSP,2013-11-09 16:01:00,
2013-11-09 11:06:00,44.2,39.4,29.68,SSW,202,4.0,12.0,83,0.00,,,0.17,WUHU21636XXSP,2013-11-09 16:06:00,
2013-11-09 11:11:00,44.4,39.2,29.68,SSW,202,0.8,12.0,83,0.00,,,0.17,WUHU21636XXSP,2013-11-09 16:11:00,
2013-11-09 11:16:00,44.8,39.6,29.68,SW,225,7.3,10.0,82,0.00,,,0.17,WUHU21636XXSP,2013-11-09 16:16:00,
2013-11-09 11:21:00,45.0,39.4,29.68,SSW,202,4.2,12.7,81,0.00,,,0.17,WUHU21636XXSP,2013-11-09 16:21:00,
2013-11-09 11:26:00,45.0,39.7,29.68,SW,225,5.3,12.7,82,0.00,,,0.17,WUHU21636XXSP,2013-11-09 16:26:00,
2013-11-09 11:31:00,44.8,39.6,29.68,WSW,247,0.0,7.3,82,0.00,,,0.17,WUHU21636XXSP,2013-11-09 16:31:00,
2013-11-09 11:36:00,44.4,39.2,29.68,WSW,247,3.5,7.3,82,0.00,,,0.17,WUHU21636XXSP,2013-11-09 16:36:00,
2013-11-09 11:41:00,44.4,39.6,29.68,SSW,202,5.8,5.8,83,0.00,,,0.17,WUHU21636XXSP,2013-11-09 16:41:00,
2013-11-09 11:46:00,44.4,39.7,29.67,South,180,3.8,9.1,84,0.00,,,0.17,WUHU21636XXSP,2013-11-09 16:46:00,
2013-11-09 11:51:00,44.4,40.1,29.67,SSW,202,6.2,9.1,85,0.00,,,0.17,WUHU21636XXSP,2013-11-09 16:51:00,
2013-11-09 11:56:00,44.4,40.1,29.67,South,180,5.5,8.5,85,0.00,,,0.17,WUHU21636XXSP,2013-11-09 16:56:00,
2013-11-09 12:01:00,44.6,40.6,29.66,SW,225,1.1,8.7,86,0.00,,,0.17,WUHU21636XXSP,2013-11-09 17:01:00,
2013-11-09 12:06:00,44.4,40.1,29.66,SSE,157,2.6,8.7,85,0.00,,,0.17,WUHU21636XXSP,2013-11-09 17:06:00,
2013-11-09 12:11:00,44.4,40.1,29.66,SSW,202,5.3,6.4,85,0.00,,,0.17,WUHU21636XXSP,2013-11-09 17:11:00,
2013-11-09 12:16:00,44.4,40.1,29.66,South,180,2.9,5.3,85,0.00,,,0.17,WUHU21636XXSP,2013-11-09 17:16:00,
2013-11-09 12:21:00,44.4,40.6,29.66,SSW,202,5.5,7.1,86,0.00,,,0.17,WUHU21636XXSP,2013-11-09 17:21:00,
2013-11-09 12:26:00,44.4,40.6,29.66,SW,225,1.5,10.9,87,0.00,,,0.17,WUHU21636XXSP,2013-11-09 17:26:00,
2013-11-09 12:31:00,44.4,40.6,29.66,South,180,3.3,10.9,87,0.00,,,0.17,WUHU21636XXSP,2013-11-09 17:31:00,
2013-11-09 12:36:00,44.4,41.0,29.66,WSW,247,6.4,8.0,88,0.00,,,0.17,WUHU21636XXSP,2013-11-09 17:36:00,
2013-11-09 12:41:00,44.4,41.0,29.66,SSW,202,4.2,9.6,88,0.00,,,0.17,WUHU21636XXSP,2013-11-09 17:41:00,
2013-11-09 12:46:00,44.2,41.2,29.66,WSW,247,2.9,9.6,89,0.00,,,0.17,WUHU21636XXSP,2013-11-09 17:46:00,
2013-11-09 12:51:00,44.2,41.2,29.66,SSW,202,1.3,9.3,89,0.00,,,0.17,WUHU21636XXSP,2013-11-09 17:51:00,
2013-11-09 12:56:00,44.2,41.2,29.66,SSW,202,0.0,3.5,90,0.00,,,0.17,WUHU21636XXSP,2013-11-09 17:56:00,
2013-11-09 13:01:00,44.2,41.5,29.66,SSW,202,2.2,8.9,90,0.00,,,0.17,WUHU21636XXSP,2013-11-09 18:01:00,
2013-11-09 13:06:00,43.9,41.2,29.65,SW,225,2.9,8.9,90,0.02,,,0.19,WUHU21636XXSP,2013-11-09 18:06:00,
2013-11-09 13:11:00,43.9,41.2,29.65,WSW,247,0.0,4.6,90,0.02,,,0.19,WUHU21636XXSP,2013-11-09 18:11:00,
2013-11-09 13:16:00,43.9,41.2,29.66,SW,225,6.2,8.2,90,0.02,,,0.19,WUHU21636XXSP,2013-11-09 18:16:00,
2013-11-09 13:21:00,43.9,41.2,29.65,SW,225,6.9,8.2,90,0.02,,,0.19,WUHU21636XXSP,2013-11-09 18:21:00,
2013-11-09 13:26:00,43.9,41.2,29.65,SW,225,2.9,14.0,90,0.02,,,0.19,WUHU21636XXSP,2013-11-09 18:26:00,
2013-11-09 13:31:00,43.9,41.2,29.65,SSW,202,0.0,14.0,90,0.02,,,0.19,WUHU21636XXSP,2013-11-09 18:31:00,
2013-11-09 13:36:00,43.9,41.2,29.65,SW,225,3.1,3.3,90,0.02,,,0.19,WUHU21636XXSP,2013-11-09 18:36:00,
2013-11-09 13:41:00,43.9,41.2,29.65,WSW,247,0.0,6.7,90,0.04,,,0.21,WUHU21636XXSP,2013-11-09 18:41:00,
2013-11-09 13:46:00,44.2,41.5,29.65,WSW,247,2.4,6.7,90,0.04,,,0.21,WUHU21636XXSP,2013-11-09 18:46:00,
2013-11-09 13:51:00,44.2,41.5,29.65,WNW,292,1.5,6.4,90,0.04,,,0.21,WUHU21636XXSP,2013-11-09 18:51:00,
2013-11-09 13:56:00,44.2,41.5,29.65,WSW,247,3.1,4.0,90,0.04,,,0.21,WUHU21636XXSP,2013-11-09 18:56:00,
2013-11-09 14:01:00,44.4,41.7,29.65,West,270,0.0,4.0,90,0.04,,,0.21,WUHU21636XXSP,2013-11-09 19:01:00,
2013-11-09 14:06:00,44.4,41.7,29.65,South,180,6.0,7.8,90,0.02,,,0.21,WUHU21636XXSP,2013-11-09 19:06:00,
2013-11-09 14:11:00,44.4,41.7,29.65,SSW,202,4.9,15.2,90,0.02,,,0.21,WUHU21636XXSP,2013-11-09 19:11:00,
2013-11-09 14:16:00,44.4,41.7,29.65,WNW,292,1.7,18.9,90,0.02,,,0.21,WUHU21636XXSP,2013-11-09 19:16:00,
2013-11-09 14:21:00,44.8,42.1,29.65,SSW,202,3.8,18.9,90,0.02,,,0.21,WUHU21636XXSP,2013-11-09 19:21:00,
2013-11-09 14:26:00,44.6,41.9,29.66,SW,225,1.1,3.8,90,0.02,,,0.21,WUHU21636XXSP,2013-11-09 19:26:00,
2013-11-09 14:31:00,44.4,41.7,29.66,WSW,247,0.0,7.8,90,0.02,,,0.21,WUHU21636XXSP,2013-11-09 19:31:00,
2013-11-09 14:36:00,44.4,41.7,29.66,West,270,1.1,9.1,90,0.04,,,0.23,WUHU21636XXSP,2013-11-09 19:36:00,
2013-11-09 14:41:00,44.4,41.7,29.66,West,270,3.1,9.1,90,0.02,,,0.23,WUHU21636XXSP,2013-11-09 19:41:00,
2013-11-09 14:46:00,44.4,41.7,29.66,SW,225,8.7,10.0,90,0.02,,,0.23,WUHU21636XXSP,2013-11-09 19:46:00,
2013-11-09 14:52:00,44.2,41.5,29.66,WSW,247,2.0,10.0,90,0.04,,,0.25,WUHU21636XXSP,2013-11-09 19:52:00,
2013-11-09 14:57:00,44.2,41.5,29.66,WSW,247,2.6,9.1,90,0.04,,,0.25,WUHU21636XXSP,2013-11-09 19:57:00,
2013-11-09 15:01:00,44.4,41.7,29.66,West,270,1.1,8.7,90,0.04,,,0.25,WUHU21636XXSP,2013-11-09 20:01:00,
2013-11-09 15:06:00,44.2,41.5,29.66,West,270,1.3,10.5,90,0.04,,,0.25,WUHU21636XXSP,2013-11-09 20:06:00,
2013-11-09 15:11:00,44.4,41.7,29.67,South,180,2.2,10.5,90,0.04,,,0.25,WUHU21636XXSP,2013-11-09 20:11:00,
2013-11-09 15:16:00,44.2,41.5,29.67,West,270,0.0,11.4,90,0.04,,,0.25,WUHU21636XXSP,2013-11-09 20:16:00,
2013-11-09 15:21:00,44.2,41.5,29.67,West,270,0.0,11.4,90,0.04,,,0.25,WUHU21636XXSP,2013-11-09 20:21:00,
2013-11-09 15:26:00,44.2,41.5,29.67,WNW,292,3.8,12.3,90,0.09,,,0.30,WUHU21636XXSP,2013-11-09 20:26:00,
2013-11-09 15:31:00,44.2,41.5,29.67,West,270,2.4,12.3,90,0.09,,,0.30,WUHU21636XXSP,2013-11-09 20:31:00,
2013-11-09 15:36:00,43.9,41.2,29.67,NW,315,5.8,9.3,90,0.07,,,0.30,WUHU21636XXSP,2013-11-09 20:36:00,
2013-11-09 15:41:00,43.9,41.2,29.67,NW,315,2.6,14.0,90,0.07,,,0.30,WUHU21636XXSP,2013-11-09 20:41:00,
2013-11-09 15:46:00,43.7,41.0,29.68,SSW,202,3.1,14.0,90,0.07,,,0.30,WUHU21636XXSP,2013-11-09 20:46:00,
2013-11-09 15:51:00,43.7,41.0,29.68,West,270,0.6,4.9,90,0.05,,,0.30,WUHU21636XXSP,2013-11-09 20:51:00,
2013-11-09 15:56:00,43.5,40.8,29.68,West,270,1.3,4.4,90,0.05,,,0.30,WUHU21636XXSP,2013-11-09 20:56:00,
2013-11-09 16:01:00,43.3,40.6,29.68,WNW,292,4.2,4.4,90,0.05,,,0.30,WUHU21636XXSP,2013-11-09 21:01:00,
2013-11-09 16:06:00,43.3,40.6,29.68,West,270,7.6,14.0,90,0.07,,,0.32,WUHU21636XXSP,2013-11-09 21:06:00,
2013-11-09 16:11:00,43.2,40.5,29.68,WNW,292,4.6,14.0,90,0.07,,,0.32,WUHU21636XXSP,2013-11-09 21:11:00,
2013-11-09 16:16:00,43.2,40.1,29.68,West,270,1.5,12.0,89,0.07,,,0.32,WUHU21636XXSP,2013-11-09 21:16:00,
2013-11-09 16:22:00,43.0,39.9,29.68,West,270,1.3,12.0,90,0.05,,,0.32,WUHU21636XXSP,2013-11-09 21:22:00,
2013-11-09 16:27:00,42.8,40.1,29.69,WNW,292,8.9,13.8,90,0.02,,,0.32,WUHU21636XXSP,2013-11-09 21:27:00,
2013-11-09 16:32:00,42.6,39.9,29.69,West,270,3.8,13.8,90,0.04,,,0.34,WUHU21636XXSP,2013-11-09 21:32:00,
2013-11-09 16:37:00,42.6,39.9,29.69,NW,315,6.0,18.1,90,0.04,,,0.34,WUHU21636XXSP,2013-11-09 21:37:00,
2013-11-09 16:42:00,42.4,39.7,29.70,NW,315,4.2,20.1,90,0.04,,,0.34,WUHU21636XXSP,2013-11-09 21:42:00,
2013-11-09 16:47:00,42.4,39.7,29.70,NW,315,7.6,20.1,90,0.06,,,0.36,WUHU21636XXSP,2013-11-09 21:47:00,
2013-11-09 16:52:00,42.4,39.7,29.70,NW,315,15.8,25.0,90,0.06,,,0.36,WUHU21636XXSP,2013-11-09 21:52:00,
2013-11-09 16:57:00,42.1,39.4,29.70,WNW,292,5.8,25.0,90,0.06,,,0.36,WUHU21636XXSP,2013-11-09 21:57:00,
2013-11-09 17:02:00,41.9,39.2,29.71,NW,315,8.7,20.8,90,0.06,,,0.36,WUHU21636XXSP,2013-11-09 22:02:00,
2013-11-09 17:06:00,41.7,39.0,29.71,NW,315,3.8,15.6,90,0.04,,,0.36,WUHU21636XXSP,2013-11-09 22:06:00,
2013-11-09 17:11:00,41.5,38.8,29.71,North,0,7.6,19.9,90,0.06,,,0.38,WUHU21636XXSP,2013-11-09 22:11:00,
2013-11-09 17:16:00,41.4,38.7,29.71,WNW,292,14.3,23.7,90,0.06,,,0.38,WUHU21636XXSP,2013-11-09 22:16:00,
2013-11-09 17:22:00,41.2,38.5,29.71,WSW,247,2.2,23.7,90,0.06,,,0.38,WUHU21636XXSP,2013-11-09 22:22:00,
2013-11-09 17:27:00,41.2,38.5,29.72,NW,315,10.0,17.8,90,0.04,,,0.38,WUHU21636XXSP,2013-11-09 22:27:00,
2013-11-09 17:32:00,41.2,38.5,29.72,NW,315,6.0,14.5,90,0.04,,,0.38,WUHU21636XXSP,2013-11-09 22:32:00,
2013-11-09 17:37:00,41.0,38.3,29.72,NW,315,4.6,14.5,90,0.04,,,0.38,WUHU21636XXSP,2013-11-09 22:37:00,
2013-11-09 17:42:00,40.8,38.1,29.72,NW,315,7.3,15.2,90,0.02,,,0.38,WUHU21636XXSP,2013-11-09 22:42:00,
2013-11-09 17:47:00,40.8,38.1,29.73,NW,315,7.8,19.4,90,0.04,,,0.40,WUHU21636XXSP,2013-11-09 22:47:00,
2013-11-09 17:52:00,40.6,37.9,29.73,WNW,292,17.0,27.5,90,0.06,,,0.42,WUHU21636XXSP,2013-11-09 22:52:00,
2013-11-09 17:57:00,40.6,37.9,29.73,NW,315,6.4,27.7,90,0.06,,,0.42,WUHU21636XXSP,2013-11-09 22:57:00,
2013-11-09 18:02:00,40.3,37.6,29.73,NW,315,7.1,27.7,90,0.06,,,0.42,WUHU21636XXSP,2013-11-09 23:02:00,
2013-11-09 18:07:00,40.3,37.6,29.74,NW,315,4.2,14.9,90,0.06,,,0.42,WUHU21636XXSP,2013-11-09 23:07:00,
2013-11-09 18:12:00,40.3,37.6,29.74,WNW,292,8.2,13.6,90,0.06,,,0.44,WUHU21636XXSP,2013-11-09 23:12:00,
2013-11-09 18:17:00,40.3,37.6,29.74,West,270,7.8,19.0,90,0.06,,,0.44,WUHU21636XXSP,2013-11-09 23:17:00,
2013-11-09 18:22:00,40.1,37.4,29.74,WNW,292,12.5,19.0,90,0.06,,,0.44,WUHU21636XXSP,2013-11-09 23:22:00,
2013-11-09 18:27:00,40.1,37.4,29.74,WNW,292,9.3,21.0,90,0.06,,,0.44,WUHU21636XXSP,2013-11-09 23:27:00,
2013-11-09 18:32:00,40.3,37.6,29.75,WNW,292,6.0,21.0,90,0.06,,,0.44,WUHU21636XXSP,2013-11-09 23:32:00,
2013-11-09 18:37:00,40.1,37.4,29.75,West,270,4.6,20.5,90,0.06,,,0.44,WUHU21636XXSP,2013-11-09 23:37:00,
2013-11-09 18:42:00,40.1,37.4,29.75,WNW,292,10.5,18.3,90,0.04,,,0.44,WUHU21636XXSP,2013-11-09 23:42:00,
2013-11-09 18:47:00,40.1,37.4,29.75,North,0,6.9,18.3,90,0.06,,,0.46,WUHU21636XXSP,2013-11-09 23:47:00,
2013-11-09 18:52:00,40.1,37.4,29.76,NW,315,6.0,15.6,90,0.04,,,0.46,WUHU21636XXSP,2013-11-09 23:52:00,
2013-11-09 18:57:00,40.3,37.2,29.76,NW,315,7.3,19.2,89,0.04,,,0.46,WUHU21636XXSP,2013-11-09 23:57:00,
2013-11-09 19:02:00,40.3,37.2,29.76,NW,315,9.6,22.1,89,0.04,,,0.46,WUHU21636XXSP,2013-11-10 00:02:00,
2013-11-09 19:07:00,40.1,36.7,29.75,NW,315,5.3,22.1,89,0.04,,,0.46,WUHU21636XXSP,2013-11-10 00:07:00,
2013-11-09 19:12:00,39.9,36.5,29.76,NNE,22,11.4,22.5,88,0.02,,,0.46,WUHU21636XXSP,2013-11-10 00:12:00,
2013-11-09 19:17:00,39.9,36.5,29.76,NW,315,13.8,22.5,88,0.02,,,0.46,WUHU21636XXSP,2013-11-10 00:17:00,
2013-11-09 19:22:00,39.9,36.5,29.76,NW,315,10.0,19.4,88,0.02,,,0.46,WUHU21636XXSP,2013-11-10 00:22:00,
2013-11-09 19:27:00,39.9,36.5,29.76,NW,315,8.9,19.4,88,0.02,,,0.46,WUHU21636XXSP,2013-11-10 00:27:00,
2013-11-09 19:32:00,39.7,36.3,29.76,NNW,337,7.3,16.1,88,0.02,,,0.46,WUHU21636XXSP,2013-11-10 00:32:00,
2013-11-09 19:37:00,39.7,36.3,29.77,NW,315,7.6,17.8,88,0.02,,,0.46,WUHU21636XXSP,2013-11-10 00:37:00,
2013-11-09 19:42:00,39.6,36.1,29.77,NW,315,7.3,17.8,88,0.02,,,0.46,WUHU21636XXSP,2013-11-10 00:42:00,
2013-11-09 19:47:00,39.6,36.1,29.77,NW,315,3.3,17.2,88,0.00,,,0.46,WUHU21636XXSP,2013-11-10 00:47:00,
2013-11-09 19:52:00,39.7,36.1,29.77,WNW,292,6.2,13.6,87,0.00,,,0.46,WUHU21636XXSP,2013-11-10 00:52:00,
2013-11-09 19:57:00,39.7,35.8,29.77,NW,315,6.9,17.4,86,0.00,,,0.46,WUHU21636XXSP,2013-11-10 00:57:00,
2013-11-09 20:02:00,39.7,35.8,29.77,WNW,292,8.5,17.4,86,0.00,,,0.46,WUHU21636XXSP,2013-11-10 01:02:00,
2013-11-09 20:07:00,39.7,35.8,29.77,WNW,292,5.8,15.4,86,0.00,,,0.46,WUHU21636XXSP,2013-11-10 01:07:00,
2013-11-09 20:12:00,39.9,35.6,29.77,NW,315,10.2,19.6,85,0.00,,,0.46,WUHU21636XXSP,2013-11-10 01:12:00,
2013-11-09 20:17:00,39.9,35.4,29.77,West,270,8.7,19.6,84,0.00,,,0.46,WUHU21636XXSP,2013-11-10 01:17:00,
2013-11-09 20:22:00,39.9,35.1,29.77,NW,315,14.7,19.2,83,0.00,,,0.46,WUHU21636XXSP,2013-11-10 01:22:00,
2013-11-09 20:27:00,40.1,35.2,29.78,NNW,337,5.5,19.2,83,0.00,,,0.46,WUHU21636XXSP,2013-11-10 01:27:00,
2013-11-09 20:32:00,40.1,35.4,29.78,NW,315,6.0,14.5,84,0.00,,,0.46,WUHU21636XXSP,2013-11-10 01:32:00,
2013-11-09 20:37:00,39.9,35.1,29.77,NW,315,8.2,16.1,83,0.00,,,0.46,WUHU21636XXSP,2013-11-10 01:37:00,
2013-11-09 20:42:00,39.9,35.3,29.78,NNW,337,8.0,17.4,84,0.00,,,0.46,WUHU21636XXSP,2013-11-10 01:42:00,
2013-11-09 20:47:00,40.1,34.9,29.78,WNW,292,3.5,17.4,82,0.00,,,0.46,WUHU21636XXSP,2013-11-10 01:47:00,
2013-11-09 20:52:00,40.1,35.1,29.78,NW,315,11.4,19.9,82,0.00,,,0.46,WUHU21636XXSP,2013-11-10 01:52:00,
2013-11-09 20:57:00,40.3,34.9,29.78,NNW,337,6.2,19.9,81,0.00,,,0.46,WUHU21636XXSP,2013-11-10 01:57:00,
2013-11-09 21:02:00,40.3,34.9,29.78,WNW,292,5.3,17.2,81,0.00,,,0.46,WUHU21636XXSP,2013-11-10 02:02:00,
2013-11-09 21:07:00,40.3,34.9,29.79,NW,315,8.9,14.7,81,0.00,,,0.46,WUHU21636XXSP,2013-11-10 02:07:00,
2013-11-09 21:12:00,40.3,34.5,29.78,WNW,292,8.7,19.2,80,0.00,,,0.46,WUHU21636XXSP,2013-11-10 02:12:00,
2013-11-09 21:17:00,40.3,34.9,29.79,West,270,3.5,21.9,81,0.00,,,0.46,WUHU21636XXSP,2013-11-10 02:17:00,
2013-11-09 21:22:00,40.5,34.3,29.78,NW,315,6.2,25.2,79,0.00,,,0.46,WUHU21636XXSP,2013-11-10 02:22:00,
2013-11-09 21:27:00,40.6,34.2,29.78,NW,315,12.7,25.2,78,0.00,,,0.46,WUHU21636XXSP,2013-11-10 02:27:00,
2013-11-09 21:32:00,40.6,34.2,29.79,WSW,247,13.1,23.0,78,0.00,,,0.46,WUHU21636XXSP,2013-11-10 02:32:00,
2013-11-09 21:37:00,40.6,34.3,29.79,NW,315,6.7,25.7,78,0.00,,,0.46,WUHU21636XXSP,2013-11-10 02:37:00,
2013-11-09 21:42:00,40.6,34.2,29.79,WNW,292,7.8,25.7,78,0.00,,,0.46,WUHU21636XXSP,2013-11-10 02:42:00,
2013-11-09 21:47:00,40.6,33.8,29.79,West,270,4.4,22.1,77,0.00,,,0.46,WUHU21636XXSP,2013-11-10 02:47:00,
2013-11-09 21:52:00,40.6,33.8,29.79,NNW,337,8.2,22.1,77,0.00,,,0.46,WUHU21636XXSP,2013-11-10 02:52:00,
2013-11-09 21:57:00,40.6,33.8,29.79,West,270,14.0,21.4,77,0.00,,,0.46,WUHU21636XXSP,2013-11-10 02:57:00,
2013-11-09 22:02:00,40.6,33.8,29.79,West,270,6.9,21.4,77,0.00,,,0.46,WUHU21636XXSP,2013-11-10 03:02:00,
2013-11-09 22:07:00,40.6,34.2,29.79,West,270,2.6,13.8,78,0.00,,,0.46,WUHU21636XXSP,2013-11-10 03:07:00,
2013-11-09 22:12:00,40.6,33.8,29.79,WNW,292,8.5,14.7,77,0.00,,,0.46,WUHU21636XXSP,2013-11-10 03:12:00,
2013-11-09 22:17:00,40.6,33.8,29.79,WNW,292,8.2,16.5,77,0.00,,,0.46,WUHU21636XXSP,2013-11-10 03:17:00,
2013-11-09 22:22:00,40.6,34.2,29.79,WNW,292,3.8,16.5,78,0.00,,,0.46,WUHU21636XXSP,2013-11-10 03:22:00,
2013-11-09 22:27:00,40.6,34.2,29.78,NNW,337,8.0,14.9,78,0.00,,,0.46,WUHU21636XXSP,2013-11-10 03:27:00,
2013-11-09 22:32:00,40.6,33.8,29.79,West,270,7.8,15.8,77,0.00,,,0.46,WUHU21636XXSP,2013-11-10 03:32:00,
2013-11-09 22:37:00,40.6,33.4,29.79,West,270,8.5,16.7,77,0.00,,,0.46,WUHU21636XXSP,2013-11-10 03:37:00,
2013-11-09 22:42:00,40.8,33.6,29.79,West,270,12.5,24.8,76,0.00,,,0.46,WUHU21636XXSP,2013-11-10 03:42:00,
2013-11-09 22:47:00,40.8,33.9,29.79,NW,315,6.9,24.8,76,0.00,,,0.46,WUHU21636XXSP,2013-11-10 03:47:00,
2013-11-09 22:52:00,40.8,34.0,29.79,NW,315,7.1,20.1,77,0.00,,,0.46,WUHU21636XXSP,2013-11-10 03:52:00,
2013-11-09 22:57:00,40.6,33.8,29.79,NW,315,7.8,20.1,77,0.00,,,0.46,WUHU21636XXSP,2013-11-10 03:57:00,
2013-11-09 23:02:00,40.6,34.2,29.79,WSW,247,8.2,16.5,78,0.00,,,0.46,WUHU21636XXSP,2013-11-10 04:02:00,
2013-11-09 23:07:00,40.6,33.8,29.79,NW,315,14.9,21.6,77,0.00,,,0.46,WUHU21636XXSP,2013-11-10 04:07:00,
2013-11-09 23:12:00,40.8,34.0,29.79,West,270,12.7,21.6,77,0.00,,,0.46,WUHU21636XXSP,2013-11-10 04:12:00,
2013-11-09 23:17:00,40.8,34.0,29.79,NW,315,6.2,20.1,77,0.00,,,0.46,WUHU21636XXSP,2013-11-10 04:17:00,
2013-11-09 23:22:00,40.6,33.8,29.79,NW,315,4.4,16.7,77,0.00,,,0.46,WUHU21636XXSP,2013-11-10 04:22:00,
2013-11-09 23:27:00,40.6,34.0,29.79,West,270,1.5,14.9,77,0.00,,,0.46,WUHU21636XXSP,2013-11-10 04:27:00,
2013-11-09 23:32:00,40.8,34.0,29.79,NW,315,6.9,12.9,77,0.00,,,0.46,WUHU21636XXSP,2013-11-10 04:32:00,
2013-11-09 23:37:00,40.8,34.0,29.79,NW,315,10.7,23.2,77,0.00,,,0.46,WUHU21636XXSP,2013-11-10 04:37:00,
2013-11-09 23:42:00,40.6,34.0,29.79,NW,315,8.0,23.2,77,0.00,,,0.46,WUHU21636XXSP,2013-11-10 04:42:00,
2013-11-09 23:47:00,40.8,33.6,29.79,NW,315,8.9,24.1,76,0.00,,,0.46,WUHU21636XXSP,2013-11-10 04:47:00,
2013-11-09 23:52:00,41.0,33.6,29.79,NW,315,16.3,24.3,75,0.00,,,0.46,WUHU21636XXSP,2013-11-10 04:52:00,
2013-11-09 23:57:00,41.0,33.6,29.79,West,270,12.3,24.3,75,0.00,,,0.46,WUHU21636XXSP,2013-11-10 04:57:00,